| time (UTC) | temp F | wind direction | speed knots | gust knots | rain 1hr in | rain 24hr in | rain mn in | humidity % | barometer mb |
| 20260504224347 | 71 | 171 | 0.9 | 3.5 | 0.00 | 0.00 | 0.00 | 31 | 1005.9 |
| 20260504223843 | 71 | 164 | 0.9 | 3.5 | 0.00 | 0.00 | 0.00 | 31 | 1005.9 |
| 20260504223339 | 71 | 157 | 2.6 | 6.1 | 0.00 | 0.00 | 0.00 | 31 | 1005.9 |
| 20260504222836 | 71 | 163 | 3.5 | 3.5 | 0.00 | 0.00 | 0.00 | 31 | 1005.8 |
| 20260504222332 | 71 | 167 | 0.9 | 2.6 | 0.00 | 0.00 | 0.00 | 31 | 1005.8 |
| 20260504221831 | 71 | 152 | 1.7 | 2.6 | 0.00 | 0.00 | 0.00 | 31 | 1005.8 |
| 20260504221327 | 71 | 164 | 2.6 | 2.6 | 0.00 | 0.00 | 0.00 | 31 | 1005.6 |
| 20260504220825 | 71 | 185 | 2.6 | 7.8 | 0.00 | 0.00 | 0.00 | 30 | 1005.7 |
| 20260504220321 | 72 | 163 | 3.5 | 6.1 | 0.00 | 0.00 | 0.00 | 30 | 1005.8 |
| 20260504215819 | 72 | 192 | 1.7 | 5.2 | 0.00 | 0.00 | 0.00 | 31 | 1005.9 |
| 20260504215315 | 72 | 187 | 2.6 | 6.1 | 0.00 | 0.00 | 0.00 | 30 | 1005.7 |
| 20260504214811 | 72 | 203 | 0.9 | 2.6 | 0.00 | 0.00 | 0.00 | 30 | 1005.7 |
| 20260504214308 | 72 | 142 | 0.9 | 2.6 | 0.00 | 0.00 | 0.00 | 30 | 1005.8 |
| 20260504213804 | 71 | 183 | 2.6 | 7.0 | 0.00 | 0.00 | 0.00 | 30 | 1005.7 |
| 20260504213300 | 71 | 179 | 2.6 | 7.8 | 0.00 | 0.00 | 0.00 | 30 | 1005.8 |
| 20260504212758 | 71 | 201 | 3.5 | 7.8 | 0.00 | 0.00 | 0.00 | 30 | 1005.7 |
| 20260504212254 | 72 | 126 | 1.7 | 3.5 | 0.00 | 0.00 | 0.00 | 30 | 1005.8 |
| 20260504211752 | 72 | 157 | 1.7 | 2.6 | 0.00 | 0.00 | 0.00 | 29 | 1005.8 |
| 20260504211247 | 72 | 194 | 6.1 | 11.3 | 0.00 | 0.00 | 0.00 | 29 | 1006.0 |
| 20260504210745 | 72 | 224 | 1.7 | 7.0 | 0.00 | 0.00 | 0.00 | 29 | 1005.7 |
| 20260504210242 | 72 | 172 | 0.9 | 7.0 | 0.00 | 0.00 | 0.00 | 29 | 1005.9 |
| 20260504205739 | 73 | 167 | 5.2 | 9.6 | 0.00 | 0.00 | 0.00 | 28 | 1005.8 |
| 20260504205237 | 73 | 205 | 2.6 | 2.6 | 0.00 | 0.00 | 0.00 | 29 | 1005.8 |
| 20260504204735 | 74 | 205 | 1.7 | 2.6 | 0.00 | 0.00 | 0.00 | 28 | 1005.7 |
| 20260504204233 | 74 | 195 | 3.5 | 5.2 | 0.00 | 0.00 | 0.00 | 28 | 1005.7 |
| 20260504203732 | 75 | 195 | 5.2 | 7.0 | 0.00 | 0.00 | 0.00 | 26 | 1005.8 |
| 20260504203229 | 74 | 155 | 2.6 | 3.5 | 0.00 | 0.00 | 0.00 | 28 | 1005.8 |
| 20260504202729 | 73 | 162 | 2.6 | 6.1 | 0.00 | 0.00 | 0.00 | 28 | 1005.6 |
| 20260504202226 | 74 | 181 | 0.9 | 7.0 | 0.00 | 0.00 | 0.00 | 28 | 1005.8 |
| 20260504201724 | 74 | 148 | 3.5 | 7.0 | 0.00 | 0.00 | 0.00 | 27 | 1005.8 |
| 20260504201221 | 73 | 162 | 1.7 | 7.0 | 0.00 | 0.00 | 0.00 | 28 | 1005.7 |
| 20260504200718 | 74 | 187 | 7.0 | 8.7 | 0.00 | 0.00 | 0.00 | 26 | 1005.8 |
| 20260504200214 | 73 | 195 | 1.7 | 3.5 | 0.00 | 0.00 | 0.00 | 27 | 1005.7 |
| 20260504195711 | 74 | 189 | 3.5 | 6.1 | 0.00 | 0.00 | 0.00 | 27 | 1005.8 |
| 20260504195207 | 73 | 39 | 3.5 | 6.1 | 0.00 | 0.00 | 0.00 | 27 | 1005.7 |
| 20260504194704 | 73 | 16 | 3.5 | 6.1 | 0.00 | 0.00 | 0.00 | 27 | 1005.9 |
| 20260504194200 | 73 | 149 | 7.0 | 8.7 | 0.00 | 0.00 | 0.00 | 27 | 1006.0 |
| 20260504193656 | 73 | 18 | 2.6 | 9.6 | 0.00 | 0.00 | 0.00 | 27 | 1005.8 |
| 20260504193154 | 74 | 195 | 3.5 | 5.2 | 0.00 | 0.00 | 0.00 | 28 | 1005.7 |
| 20260504192652 | 74 | 169 | 1.7 | 6.1 | 0.00 | 0.00 | 0.00 | 27 | 1005.9 |
| 20260504192150 | 74 | 193 | 3.5 | 7.0 | 0.00 | 0.00 | 0.00 | 27 | 1005.9 |
| 20260504191648 | 74 | 192 | 5.2 | 7.8 | 0.00 | 0.00 | 0.00 | 26 | 1006.0 |
| 20260504191144 | 74 | 193 | 1.7 | 2.6 | 0.00 | 0.00 | 0.00 | 26 | 1006.1 |
| 20260504190640 | 73 | 158 | 4.3 | 7.0 | 0.00 | 0.00 | 0.00 | 27 | 1006.0 |
| 20260504190137 | 74 | 193 | 5.2 | 12.2 | 0.00 | 0.00 | 0.00 | 26 | 1006.1 |
| 20260504185633 | 74 | 203 | 3.5 | 7.0 | 0.00 | 0.00 | 0.00 | 26 | 1005.9 |
| 20260504185130 | 73 | 191 | 0.9 | 5.2 | 0.00 | 0.00 | 0.00 | 27 | 1006.3 |
| 20260504184626 | 73 | 198 | 4.3 | 7.0 | 0.00 | 0.00 | 0.00 | 26 | 1006.1 |
| 20260504184121 | 73 | 165 | 7.0 | 12.2 | 0.00 | 0.00 | 0.00 | 26 | 1006.5 |
| 20260504183619 | 73 | 176 | 2.6 | 9.6 | 0.00 | 0.00 | 0.00 | 26 | 1006.3 |
| 20260504183116 | 72 | 218 | 0.9 | 8.7 | 0.00 | 0.00 | 0.00 | 27 | 1006.4 |
| 20260504182614 | 71 | 198 | 2.6 | 7.8 | 0.00 | 0.00 | 0.00 | 28 | 1006.3 |
| 20260504182111 | 72 | 218 | 1.7 | 9.6 | 0.00 | 0.00 | 0.00 | 27 | 1006.4 |
| 20260504181608 | 73 | 191 | 3.5 | 6.1 | 0.00 | 0.00 | 0.00 | 26 | 1006.5 |
| 20260504181106 | 72 | 146 | 1.7 | 11.3 | 0.00 | 0.00 | 0.00 | 28 | 1006.6 |
| 20260504180604 | 71 | 170 | 3.5 | 9.6 | 0.00 | 0.00 | 0.00 | 28 | 1006.6 |
| 20260504180103 | 71 | 193 | 2.6 | 9.6 | 0.00 | 0.00 | 0.00 | 27 | 1006.3 |
| 20260504175600 | 71 | 140 | 4.3 | 7.8 | 0.00 | 0.00 | 0.00 | 27 | 1006.5 |
| 20260504175056 | 71 | 183 | 2.6 | 7.8 | 0.00 | 0.00 | 0.00 | 28 | 1006.6 |
| 20260504174555 | 71 | 162 | 3.5 | 9.6 | 0.00 | 0.00 | 0.00 | 27 | 1006.7 |
| 20260504174051 | 71 | 287 | 5.2 | 8.7 | 0.00 | 0.00 | 0.00 | 27 | 1006.7 |
| 20260504173548 | 71 | 148 | 2.6 | 7.0 | 0.00 | 0.00 | 0.00 | 28 | 1006.5 |
| 20260504173045 | 72 | 190 | 2.6 | 8.7 | 0.00 | 0.00 | 0.00 | 27 | 1006.9 |
| 20260504172541 | 71 | 157 | 3.5 | 8.7 | 0.00 | 0.00 | 0.00 | 28 | 1006.9 |
| 20260504172038 | 71 | 125 | 3.5 | 7.0 | 0.00 | 0.00 | 0.00 | 28 | 1007.0 |
| 20260504171535 | 70 | 212 | 2.6 | 6.1 | 0.00 | 0.00 | 0.00 | 29 | 1007.1 |
| 20260504171032 | 71 | 168 | 3.5 | 11.3 | 0.00 | 0.00 | 0.00 | 28 | 1007.1 |
| 20260504170528 | 70 | 162 | 3.5 | 6.1 | 0.00 | 0.00 | 0.00 | 28 | 1007.0 |
| 20260504150912 | 66 | 145 | 4.3 | 5.2 | 0.00 | 0.00 | 0.00 | 33 | 1008.4 |
| 20260504150409 | 66 | 35 | 3.5 | 6.1 | 0.00 | 0.00 | 0.00 | 34 | 1008.4 |
| 20260504141130 | 64 | 183 | 5.2 | 7.8 | 0.00 | 0.00 | 0.00 | 35 | 1008.7 |
| 20260504140627 | 63 | 153 | 1.7 | 6.1 | 0.00 | 0.00 | 0.00 | 37 | 1008.8 |
| 20260504140122 | 63 | 340 | 4.3 | 7.0 | 0.00 | 0.00 | 0.00 | 37 | 1008.9 |
| 20260504130551 | 59 | 164 | 1.7 | 6.1 | 0.00 | 0.00 | 0.00 | 42 | 1009.7 |
| 20260504110438 | 48 | 145 | 0.9 | 6.1 | 0.00 | 0.00 | 0.00 | 56 | 1009.7 |
| 20260504100355 | 46 | 113 | 0.0 | 0.0 | 0.00 | 0.00 | 0.00 | 58 | 1010.0 |
| 20260504081748 | 44 | 48 | 0.0 | 0.0 | 0.00 | 0.00 | 0.00 | 64 | 1009.9 |
| 20260504081244 | 44 | 48 | 0.0 | 0.0 | 0.00 | 0.00 | 0.00 | 62 | 1009.9 |
| 20260504080741 | 44 | 63 | 0.0 | 0.0 | 0.00 | 0.00 | 0.00 | 62 | 1010.0 |
| 20260504080237 | 44 | 38 | 0.0 | 0.0 | 0.00 | 0.00 | 0.00 | 62 | 1010.0 |
| 20260504070205 | 44 | 144 | 0.0 | 0.0 | 0.00 | 0.00 | 0.00 | 57 | 1010.1 |
| 20260504060125 | 42 | 116 | 0.0 | 0.0 | 0.00 | 0.00 | 0.00 | 69 | 1009.9 |
| 20260504050554 | 39 | 65 | 0.0 | 0.0 | 0.00 | 0.00 | 0.00 | 81 | 1009.9 |
| 20260504045548 | 39 | 65 | 0.0 | 0.0 | 0.00 | 0.00 | 0.00 | 78 | 1010.0 |
| 20260504045043 | 38 | 66 | 0.0 | 0.0 | 0.00 | 0.00 | 0.00 | 77 | 1010.1 |
| 20260504044540 | 38 | 66 | 0.0 | 0.0 | 0.00 | 0.00 | 0.00 | 79 | 1010.1 |
| 20260504044037 | 38 | 66 | 0.0 | 0.0 | 0.00 | 0.00 | 0.00 | 79 | 1010.0 |
| 20260504043534 | 38 | 65 | 0.0 | 0.0 | 0.00 | 0.00 | 0.00 | 80 | 1010.2 |
| 20260504043032 | 38 | 66 | 0.0 | 0.0 | 0.00 | 0.00 | 0.00 | 80 | 1009.9 |
| 20260504042529 | 38 | 68 | 0.0 | 0.0 | 0.00 | 0.00 | 0.00 | 78 | 1010.0 |
| 20260504042026 | 38 | 72 | 0.0 | 0.0 | 0.00 | 0.00 | 0.00 | 77 | 1010.0 |
| 20260504041521 | 39 | 128 | 0.0 | 0.0 | 0.00 | 0.00 | 0.00 | 75 | 1010.1 |
| 20260504041017 | 39 | 132 | 0.0 | 0.0 | 0.00 | 0.00 | 0.00 | 72 | 1009.7 |
| 20260504040515 | 39 | 117 | 0.0 | 0.0 | 0.00 | 0.00 | 0.00 | 73 | 1010.1 |
| 20260504040012 | 38 | 83 | 0.0 | 0.0 | 0.00 | 0.05 | 0.05 | 74 | 1009.9 |
| 20260504035509 | 38 | 81 | 0.0 | 0.0 | 0.00 | 0.05 | 0.05 | 74 | 1010.0 |
| 20260504035005 | 38 | 61 | 0.0 | 0.0 | 0.00 | 0.05 | 0.05 | 75 | 1009.8 |
| 20260504034503 | 38 | 60 | 0.0 | 0.0 | 0.00 | 0.05 | 0.05 | 75 | 1009.7 |
| 20260504033959 | 39 | 60 | 0.0 | 0.0 | 0.00 | 0.05 | 0.05 | 74 | 1009.7 |
| 20260504033457 | 39 | 60 | 0.0 | 0.0 | 0.00 | 0.05 | 0.05 | 74 | 1009.7 |
| 20260504032954 | 39 | 60 | 0.0 | 0.0 | 0.00 | 0.05 | 0.05 | 73 | 1009.7 |
| 20260504032451 | 39 | 60 | 0.0 | 0.0 | 0.00 | 0.05 | 0.05 | 73 | 1009.6 |
| 20260504031948 | 40 | 62 | 0.0 | 0.0 | 0.00 | 0.05 | 0.05 | 71 | 1009.7 |
| 20260504031445 | 40 | 62 | 0.0 | 0.0 | 0.00 | 0.05 | 0.05 | 70 | 1009.5 |
| 20260504030941 | 40 | 62 | 0.0 | 0.0 | 0.00 | 0.05 | 0.05 | 70 | 1009.6 |
| 20260504030439 | 41 | 57 | 0.0 | 0.0 | 0.00 | 0.05 | 0.05 | 69 | 1009.6 |
| 20260504025934 | 42 | 147 | 0.0 | 0.0 | 0.00 | 0.05 | 0.05 | 66 | 1009.6 |
| 20260504025431 | 42 | 148 | 0.0 | 0.0 | 0.00 | 0.05 | 0.05 | 64 | 1009.4 |
| 20260504024928 | 42 | 154 | 0.0 | 0.9 | 0.00 | 0.05 | 0.05 | 64 | 1009.7 |
| 20260504024426 | 42 | 182 | 0.9 | 0.9 | 0.00 | 0.05 | 0.05 | 64 | 1009.5 |
| 20260504023922 | 42 | 183 | 0.0 | 0.9 | 0.00 | 0.05 | 0.05 | 64 | 1009.5 |
| 20260504023419 | 42 | 147 | 0.0 | 0.0 | 0.00 | 0.05 | 0.05 | 65 | 1009.4 |
| 20260504022914 | 42 | 142 | 0.0 | 0.0 | 0.00 | 0.05 | 0.05 | 65 | 1009.6 |
| 20260504022411 | 42 | 142 | 0.0 | 0.0 | 0.00 | 0.05 | 0.05 | 65 | 1009.5 |
| 20260504021908 | 42 | 142 | 0.0 | 0.0 | 0.00 | 0.05 | 0.05 | 65 | 1009.5 |
| 20260504021405 | 42 | 138 | 0.0 | 0.0 | 0.00 | 0.05 | 0.05 | 65 | 1009.5 |
| 20260504020903 | 43 | 140 | 0.0 | 0.0 | 0.00 | 0.05 | 0.05 | 64 | 1009.4 |
| 20260504020359 | 43 | 158 | 0.0 | 0.0 | 0.00 | 0.05 | 0.05 | 63 | 1009.4 |
| 20260504015855 | 43 | 158 | 0.0 | 0.0 | 0.00 | 0.05 | 0.05 | 63 | 1009.3 |
| 20260504015351 | 43 | 158 | 0.0 | 0.9 | 0.00 | 0.05 | 0.05 | 61 | 1009.4 |
| 20260504014847 | 42 | 142 | 0.0 | 0.0 | 0.00 | 0.05 | 0.05 | 63 | 1009.4 |
| 20260504014343 | 42 | 138 | 0.0 | 0.0 | 0.00 | 0.05 | 0.05 | 65 | 1009.2 |
| 20260504013841 | 42 | 136 | 0.0 | 0.0 | 0.00 | 0.05 | 0.05 | 63 | 1009.2 |
| 20260504013339 | 43 | 136 | 0.0 | 0.0 | 0.00 | 0.05 | 0.05 | 62 | 1009.1 |
| 20260504012835 | 43 | 136 | 0.0 | 0.0 | 0.00 | 0.05 | 0.05 | 62 | 1009.2 |
| 20260504012333 | 43 | 136 | 0.0 | 0.0 | 0.00 | 0.05 | 0.05 | 60 | 1008.8 |
| 20260504011830 | 44 | 136 | 0.0 | 0.0 | 0.00 | 0.05 | 0.05 | 59 | 1009.2 |
| 20260504011327 | 44 | 136 | 0.0 | 0.0 | 0.00 | 0.05 | 0.05 | 58 | 1009.0 |
| 20260504010823 | 44 | 136 | 0.0 | 0.0 | 0.00 | 0.05 | 0.05 | 58 | 1009.1 |
| 20260504010318 | 44 | 136 | 0.0 | 0.0 | 0.00 | 0.05 | 0.05 | 57 | 1008.9 |
| 20260504005815 | 45 | 136 | 0.0 | 0.0 | 0.00 | 0.05 | 0.05 | 56 | 1008.9 |
| 20260504005312 | 45 | 136 | 0.0 | 0.0 | 0.00 | 0.05 | 0.05 | 55 | 1008.8 |
| 20260504004810 | 45 | 136 | 0.0 | 0.0 | 0.00 | 0.05 | 0.05 | 55 | 1008.7 |
| 20260504004307 | 46 | 136 | 0.0 | 0.0 | 0.00 | 0.05 | 0.05 | 55 | 1008.6 |
| 20260504003803 | 46 | 136 | 0.0 | 0.0 | 0.00 | 0.05 | 0.05 | 54 | 1008.7 |
| 20260504003301 | 46 | 136 | 0.0 | 0.0 | 0.00 | 0.05 | 0.05 | 54 | 1008.6 |
| 20260504002757 | 46 | 136 | 0.0 | 0.0 | 0.00 | 0.05 | 0.05 | 53 | 1008.4 |
| 20260504002254 | 47 | 136 | 0.0 | 0.0 | 0.00 | 0.05 | 0.05 | 52 | 1008.7 |
| 20260504001752 | 47 | 135 | 0.0 | 0.0 | 0.00 | 0.05 | 0.05 | 51 | 1008.4 |
| 20260504001249 | 48 | 139 | 0.0 | 0.0 | 0.00 | 0.05 | 0.05 | 50 | 1008.3 |
| 20260504000745 | 48 | 140 | 0.0 | 0.0 | 0.00 | 0.05 | 0.05 | 47 | 1008.2 |
| 20260504000242 | 49 | 134 | 0.0 | 0.0 | 0.00 | 0.05 | 0.05 | 45 | 1008.2 |
| 20260503235740 | 49 | 175 | 0.0 | 0.0 | 0.00 | 0.05 | 0.05 | 45 | 1008.1 |
| 20260503235237 | 49 | 98 | 0.0 | 0.0 | 0.00 | 0.05 | 0.05 | 44 | 1008.3 |
| 20260503234735 | 50 | 345 | 0.0 | 0.0 | 0.00 | 0.05 | 0.05 | 43 | 1008.1 |
| 20260503234233 | 50 | 95 | 0.0 | 0.0 | 0.00 | 0.05 | 0.05 | 42 | 1008.0 |
| 20260503233730 | 50 | 34 | 0.9 | 0.9 | 0.00 | 0.05 | 0.05 | 42 | 1008.1 |
| 20260503233225 | 51 | 81 | 0.0 | 0.9 | 0.00 | 0.05 | 0.05 | 41 | 1007.9 |
| 20260503232722 | 51 | 21 | 0.0 | 0.0 | 0.00 | 0.05 | 0.05 | 41 | 1008.0 |
| 20260503232220 | 51 | 229 | 2.6 | 2.6 | 0.00 | 0.05 | 0.05 | 41 | 1007.8 |
| 20260503231718 | 51 | 46 | 1.7 | 2.6 | 0.00 | 0.05 | 0.05 | 39 | 1007.8 |
| 20260503231214 | 51 | 73 | 0.9 | 1.7 | 0.00 | 0.05 | 0.05 | 39 | 1007.9 |
| 20260503230710 | 52 | 206 | 0.9 | 2.6 | 0.00 | 0.05 | 0.05 | 39 | 1007.7 |
| 20260503230208 | 52 | 258 | 0.0 | 7.0 | 0.00 | 0.05 | 0.05 | 38 | 1007.8 |
| 20260503225705 | 52 | 71 | 0.0 | 6.1 | 0.00 | 0.05 | 0.05 | 38 | 1007.5 |
| 20260503225159 | 52 | 19 | 1.7 | 3.5 | 0.00 | 0.05 | 0.05 | 37 | 1007.8 |
| 20260503224657 | 52 | 109 | 1.7 | 3.5 | 0.00 | 0.05 | 0.05 | 38 | 1007.6 |